Content
SEND FEEDBACK

Daily
Averages
Monthly
Summary
United States of America

ANN ARBOR, MICHIGAN


Home > North America > United States > Michigan
Elevation: 759 feet     Latitude: 42 17N     Longitude: 083 43W

WEATHER
 
SELECT A DAY
Number of Records: 202,962;   Date Range: 1/1/95 - 7/7/14
 
SHARE

PRINT THIS DATA

[ ← Previous Day ]
WEATHER ALMANAC - JULY 18, 2013
[ Next Day → ]
[ °C ]   °F
Weather ElementAverageHighLow
Temperature81.7 °F91 °F (1:53 pm)70 °F (5:53 am)
Dewpoint73 °F75.9 °F (10:53 am)69.1 °F (5:53 am)
Humidity76.5 %97 % (2:53 am)55 % (4:53 pm)
Barometer30.07 in30.16 in (1:53 am)29.97 in (8:53 pm)
Wind Speed5.4 mph13.8 mph (4:53 pm)
Weather ElementAverage
Visibility8.8 mi
Wind DirectionSSW (205.4 °)

Weather ElementTotal
Precipitation---
Cooling Degree Days15.5 (Base 65)
Growing Degree Days30.5 (Base 50)
Averaged from 26 records on July 18, 2013
WEATHER CONDITIONS BREAKOUT
WIND DIRECTION BREAKOUT
WEATHER BY HOUR - JULY 18, 2013
[ °C ]   °F
Local TimeTemperatureDewpointHumidityBarometerVisibilityWind DirectionWind SpeedGust SpeedPrecipitationEventsConditions
1:53 AM71.1 °F70.0 °F96 %30.16 in7.0 miCalmClear
2:53 AM72.0 °F71.1 °F97 %30.15 in8.0 miWest (270°)3.5 mphClear
3:53 AM72.0 °F70.0 °F93 %30.14 in9.0 miWest (270°)3.5 mphClear
4:53 AM71.1 °F70.0 °F96 %30.14 in9.0 miCalmClear
5:53 AM70.0 °F69.1 °F97 %30.14 in5.0 miSSW (210°)3.5 mphClear
6:53 AM71.1 °F70.0 °F96 %30.14 in3.0 miCalmClear
7:53 AM77.0 °F73.0 °F88 %30.14 in8.0 miCalmClear
8:53 AM82.0 °F73.9 °F76 %30.14 in10.0 miWest (260°)4.6 mphClear
9:53 AM84.9 °F73.9 °F69 %30.12 in10.0 miWest (260°)4.6 mphPartly Cloudy
10:53 AM88.0 °F75.9 °F67 %30.12 in10.0 miWest (280°)5.8 mphClear
11:53 AM88.0 °F75.9 °F67 %30.11 in10.0 miWest (260°)8.1 mphThunderstormScattered Clouds
12:32 PM89.6 °F75.2 °F62 %30.13 in10.0 miWest (280°)10.4 mphMostly Cloudy
12:53 PM89.1 °F75.9 °F65 %30.10 in10.0 miWest (270°)9.2 mphMostly Cloudy
1:53 PM91.0 °F73.9 °F57 %30.08 in10.0 miWSW (250°)6.9 mphPartly Cloudy
2:53 PM90.0 °F73.9 °F59 %30.07 in10.0 miWest (260°)9.2 mphScattered Clouds
3:53 PM91.0 °F73.9 °F57 %30.03 in10.0 miWSW (240°)12.7 mphMostly Cloudy
4:53 PM90.0 °F72.0 °F55 %30.03 in10.0 miWNW (300°)13.8 mphClear
5:53 PM88.0 °F72.0 °F59 %30.00 in10.0 miWest (270°)10.4 mphClear
6:53 PM88.0 °F73.9 °F63 %30.00 in10.0 miWest (260°)6.9 mphClear
7:53 PM87.1 °F73.9 °F65 %29.98 in10.0 miWSW (240°)5.8 mphClear
8:53 PM82.0 °F73.9 °F76 %29.97 in10.0 miSW (220°)4.6 mphClear
9:41 PM80.6 °F73.4 °F79 %29.99 in2.5 miSW (220°)4.6 mphHaze
9:49 PM78.8 °F73.4 °F83 %29.99 in7.0 miWSW (240°)4.6 mphClear
9:53 PM78.1 °F73.9 °F87 %29.97 in10.0 miWSW (240°)4.6 mphClear
10:53 PM77.0 °F73.0 °F88 %29.97 in10.0 miWSW (240°)3.5 mphClear
11:53 PM75.9 °F73.0 °F91 %29.98 in10.0 miCalmClear
Hourly data recorded from KARB, located miles away from Ann Arbor, Michigan







STORIES FROM OUR PARTNERS